Hourly Data Report for January 11, 2013

BAGOTVILLE A
QUEBEC

48°20'00.000" N
71°00'00.000" W
159.10 m
7060400
71727
YBG

Download Data

Hourly Data (January 2013)
Hourly Data Report for January 11, 2013
TIME
LST
Temp Definition
°C
Dew Point Definition
°C
Rel Hum Definition
%
Precip. Amount Definition
mm

Wind Dir Definition
10's deg

Wind Spd Definition
km/h
Visibility Definition
km
Stn Press Definition
kPa
Hmdx Definition


Wind Chill Definition


Weather Definition


00:00 -10.3 -12.0 87   27 6 24.1 101.42   -14 Mainly Clear
01:00 -11.2 -14.8 75   18 4 24.1 101.40   -14 Mainly Clear
02:00 -12.3 -14.2 86   18 7 24.1 101.30   -17 Clear
03:00 -11.4 -13.2 86   18 4 24.1 101.28   -14 Clear
04:00 -11.2 -13.0 87   12 6 24.1 101.25   -15 Mainly Clear
05:00 -13.2 -15.2 85   22 6 24.1 101.18   -17 Cloudy
06:00 -12.0 -13.9 86   12 9 24.1 101.17   -17 Cloudy
07:00 -11.6 -13.4 86   12 6 24.1 101.17   -15 Cloudy
08:00 -11.9 -13.8 86   12 9 40.2 101.17   -17 Mainly Clear
09:00 -10.9 -13.1 84   11 9 40.2 101.14   -16 Mainly Clear
10:00 -9.3 -11.6 83   9 15 40.2 101.05   -16 Mostly Cloudy
11:00 -8.0 -10.5 82   10 17 40.2 100.91   -15 Cloudy
12:00 -5.5 -8.5 79   9 26 40.2 100.70   -13 Cloudy
13:00 -4.9 -8.1 78   9 30 40.2 100.53   -13 Mostly Cloudy
14:00 -4.8 -8.0 78   10 35 40.2 100.40   -13 Cloudy
15:00 -4.6 -7.7 79   9 26 40.2 100.41   -12 Cloudy
16:00 -4.4 -7.8 77   9 32 40.2 100.28   -12 Cloudy
17:00 -4.6 -7.7 79   9 33 19.3 100.21   -13 Freezing Rain
18:00 -4.5 -7.3 81   9 39 16.1 100.09   -13 Freezing Rain
19:00 -4.9 -7.4 83   10 41 19.3 100.00   -14 Freezing Rain
20:00 -5.0 -7.2 85   9 43 16.1 99.93   -14 Freezing Rain,Ice Pellets
21:00 -4.4 -7.5 79   10 39 16.1 99.93   -13 Snow,Ice Pellets
22:00 -4.6 -6.4 87   9 35 12.9 99.96   -13 Snow,Ice Pellets
23:00 -5.5 -7.5 86   9 35 16.1 99.87   -14 Freezing Rain,Ice Pellets

Notes on Data Quality.

Legend

  • E = Estimated
  • M = Missing
  • NA = Not Available*
  • [empty] = Indicates an unobserved value
Date modified: